Content
SEND FEEDBACK

Daily
Averages
Monthly
Summary
Canada

QUEBEC CITY, QUEBEC


Home > North America > Canada > Quebec
Elevation: 72 meters     Latitude: 46 48N     Longitude: 071 23W

WEATHER
 
SELECT A DAY
Number of Records: 197,121;   Date Range: 6/30/96 - 11/25/14
 
SHARE

PRINT THIS DATA

[ ← Previous Day ]
WEATHER ALMANAC - 21 MARCH, 2014
[ Next Day → ]
[ °F ]   °C
Weather ElementAverageHighLow
Temperature-0.9 °C0.6 °C (5:00 am)-4 °C (11:00 pm)
Dewpoint-4.8 °C-0.6 °C (2:00 am)-10 °C (10:00 pm)
Humidity73.7 %93 % (1:00 am)52 % (11:00 pm)
Barometer1005.1 hPa1014.2 hPa (11:00 pm)998 hPa (3:00 am)
Wind Speed22.7 km/h35.2 km/h (4:00 pm)
Wind Gust46.3 km/h (4:00 pm)
Weather ElementAverage
Visibility19.6 km
Wind DirectionWSW (257.4 °)

Weather ElementTotal
Precipitation---
Heating Degree Days20.1 (Base 18.3)
Averaged from 31 records on 21 March, 2014
WEATHER CONDITIONS BREAKOUT
WIND DIRECTION BREAKOUT
WEATHER BY HOUR - 21 MARCH, 2014
[ °F ]   °C
Local TimeTemperatureDewpointHumidityBarometerVisibilityWind DirectionWind SpeedGust SpeedPrecipitationEventsConditions
1:00 AM0 °C-1 °C93 %998.3 hPa12.9 kmWSW (240°)24.1 km/hSnowLight Snow
2:00 AM0 °C-0.6 °C93 %998.3 hPaWSW (240°)14.8 km/h
2:00 AM0 °C-1 °C93 %998.3 hPa6.4 kmSW (230°)25.9 km/hSnowLight Snow
3:00 AM0 °C-1 °C93 %998 hPa8 kmWSW (240°)24.1 km/h35.2 km/hSnowLight Snow
4:00 AM0 °C-1 °C93 %998 hPa8 kmSW (230°)25.9 km/hSnowLight Snow
5:00 AM0.6 °C-0.6 °C91 %998.3 hPaSW (230°)13 km/h
5:00 AM0 °C-1 °C93 %998.3 hPa6.4 kmSW (230°)20.4 km/hSnowLight Snow
6:00 AM0 °C-1 °C93 %999 hPa8 kmSW (230°)27.8 km/hSnowLight Snow
7:00 AM-1 °C-2 °C93 %1000.3 hPa8 kmSW (230°)29.6 km/hSnowLight Snow
8:00 AM-0.6 °C-2.2 °C83 %1001.4 hPaWSW (240°)16.7 km/h
8:00 AM-1 °C-3 °C86 %1001.4 hPa16.1 kmWSW (240°)27.8 km/hSnowLight Snow
9:00 AM-1 °C-4 °C80 %1002.7 hPa16.1 kmWSW (240°)24.1 km/hSnowLight Snow
10:00 AM-1 °C-4 °C80 %1003.4 hPa24.1 kmWest (260°)22.2 km/h33.3 km/hOvercast
11:00 AM0 °C-4.4 °C61 %1004.1 hPaWest (280°)24.1 km/h
11:00 AM0 °C-5 °C69 %1004.1 hPa24.1 kmWest (260°)22.2 km/h40.7 km/hMostly Cloudy
12:00 PM0 °C-6 °C64 %1005.1 hPa24.1 kmWest (270°)29.6 km/hMostly Cloudy
1:00 PM-1 °C-6 °C69 %1005.8 hPa24.1 kmWest (270°)24.1 km/h38.9 km/hMostly Cloudy
2:00 PM-0.6 °C-5.6 °C58 %1006.8 hPaWest (270°)27.8 km/h
2:00 PM-1 °C-6 °C69 %1006.4 hPa24.1 kmWSW (250°)33.3 km/hOvercast
3:00 PM-1 °C-6 °C69 %1007.5 hPa24.1 kmWest (260°)27.8 km/h38.9 km/hOvercast
4:00 PM-1 °C-6 °C69 %1007.8 hPa24.1 kmWest (270°)35.2 km/h46.3 km/hSnowLight Snow
5:00 PM0 °C-5.6 °C54 %1008.5 hPaWNW (290°)20.4 km/h
5:00 PM0 °C-7 °C60 %1008.8 hPa32.2 kmWest (270°)29.6 km/hMostly Cloudy
6:00 PM0 °C-7 °C60 %1009.8 hPa32.2 kmWest (270°)25.9 km/h42.6 km/hMostly Cloudy
7:00 PM-1 °C-8 °C60 %1010.8 hPa32.2 kmWest (270°)18.5 km/hScattered Clouds
8:00 PM-3.3 °C-8.3 °C56 %1011.9 hPaWest (270°)13 km/h
8:00 PM-2 °C-8 °C64 %1011.9 hPa24.1 kmWest (270°)18.5 km/hPartly Cloudy
9:00 PM-3 °C-9 °C64 %1012.9 hPa24.1 kmWest (270°)20.4 km/hPartly Cloudy
10:00 PM-3 °C-10 °C59 %1013.5 hPa24.1 kmWest (280°)18.5 km/hPartly Cloudy
11:00 PM-3.9 °C-9.4 °C52 %1014.2 hPaWNW (300°)13 km/h
11:00 PM-4 °C-10 °C64 %1014.2 hPa24.1 kmWest (280°)5.6 km/hClear
Hourly data recorded from CYQB, located 0 kilometers away from Quebec City, Quebec







STORIES FROM OUR PARTNERS